Change the Weather History Date:

Wednesday, October 5, 2011

  Actual Average Record
Temperature  
Mean Temperature 60 °F -  
Max Temperature 68 °F 64 °F 84 °F (1920)
Min Temperature 53 °F 37 °F 17 °F (2013)
Degree Days  
Heating Degree Days 4    
Growing Degree Days 10 (Base 50)    
Moisture  
Dew Point 36 °F    
Average Humidity 38    
Maximum Humidity 47    
Minimum Humidity 33    
Precipitation  
Precipitation 0.00 in - - ()
Sea Level Pressure  
Sea Level Pressure 29.59 in    
Wind  
Wind Speed 7 mph (SSE)    
Max Wind Speed 23 mph    
Max Gust Speed 30 mph    
Visibility 10 miles    
Events      
Averages and records for this station are not official NWS values.
T = Trace of Precipitation, MM = Missing Value Source: NWS Daily Summary

Daily Weather History Graph

Daily Weather History Graph

Search for Another Location

Airport or City:

Trip Planner

Search our weather history database for the weather conditions in past years. The results will help you decide how hot, cold, wet, or windy it might be!

Date:

Astronomy

Oct. 05, 2011 Rise Set
Actual Time 7:18 AM MDT 6:49 PM MDT
Civil Twilight 6:49 AM MDT 7:18 PM MDT
Nautical Twilight 6:15 AM MDT 7:52 PM MDT
Astronomical Twilight 5:41 AM MDT 8:26 PM MDT
Moon 3:44 PM MDT 12:54 AM MDT
Length of Visible Light 12h 29m
Length of Day
11h 31m
Waxing Gibbous, 67% of the Moon is Illuminated
Oct 5
Waxing Gibbous
Oct 11
Full
Oct 19
Last Quarter
Oct 26
New
Nov 2
First Quarter

Hourly Weather History & Observations

Time (MDT) Temp. Dew Point Humidity Pressure Visibility Wind Dir Wind Speed Gust Speed Precip Events Conditions
12:15 AM - - N/A% 29.72 in 10.0 mi SSW 6.9 mph - N/A   Mostly Cloudy
12:35 AM - - N/A% 29.71 in 10.0 mi SSW 4.6 mph - N/A   Overcast
1:15 AM - - N/A% 29.71 in 10.0 mi ESE 3.5 mph - N/A   Mostly Cloudy
1:35 AM - - N/A% 29.70 in 10.0 mi ESE 4.6 mph - N/A   Overcast
1:55 AM - - N/A% 29.70 in 10.0 mi Calm Calm - N/A   Mostly Cloudy
2:15 AM - - N/A% 29.70 in 10.0 mi SW 5.8 mph - N/A   Scattered Clouds
2:35 AM - - N/A% 29.70 in 10.0 mi SSW 5.8 mph - N/A   Mostly Cloudy
2:55 AM - - N/A% 29.69 in 10.0 mi SSW 8.1 mph - N/A   Clear
3:15 AM - - N/A% 29.68 in 10.0 mi Calm Calm - N/A   Clear
3:55 AM - - N/A% 29.67 in 10.0 mi SW 4.6 mph - N/A   Clear
4:15 AM - - N/A% 29.66 in 10.0 mi Calm Calm - N/A   Clear
4:35 AM - - N/A% 29.66 in 10.0 mi Calm Calm - N/A   Partly Cloudy
4:55 AM - - N/A% 29.66 in 10.0 mi SSE 4.6 mph - N/A   Partly Cloudy
5:35 AM - - N/A% 29.66 in 10.0 mi SW 3.5 mph - N/A   Clear
5:55 AM - - N/A% 29.66 in 10.0 mi SSW 6.9 mph - N/A   Clear
6:15 AM - - N/A% 29.66 in 10.0 mi SSW 9.2 mph - N/A   Clear
6:35 AM - - N/A% 29.66 in 10.0 mi SE 11.5 mph - N/A   Clear
6:55 AM - - N/A% 29.65 in 10.0 mi SSE 6.9 mph - N/A   Clear
7:15 AM - - N/A% 29.65 in 10.0 mi SE 8.1 mph - N/A   Clear
7:35 AM 55.4 °F 30.2 °F 38% 29.66 in 10.0 mi ESE 10.4 mph - N/A   Partly Cloudy
7:55 AM 53.6 °F 30.2 °F 41% 29.66 in 10.0 mi SE 8.1 mph - N/A   Partly Cloudy
8:15 AM 53.6 °F 30.2 °F 41% 29.66 in 10.0 mi Calm Calm - N/A   Clear
8:35 AM 53.6 °F 33.8 °F 47% 29.66 in 10.0 mi West 3.5 mph - N/A   Clear
8:55 AM 57.2 °F 33.8 °F 41% 29.66 in 10.0 mi Calm Calm - N/A   Mostly Cloudy
9:15 AM 60.8 °F 35.6 °F 39% 29.66 in 10.0 mi SSE 3.5 mph - N/A   Overcast
9:35 AM 60.8 °F 35.6 °F 39% 29.65 in 10.0 mi East 5.8 mph - N/A   Overcast
9:55 AM 62.6 °F 35.6 °F 37% 29.64 in 10.0 mi ESE 3.5 mph - N/A   Overcast
10:15 AM 64.4 °F 37.4 °F 37% 29.64 in 10.0 mi East 6.9 mph - N/A   Mostly Cloudy
10:35 AM 64.4 °F 37.4 °F 37% 29.63 in 10.0 mi East 5.8 mph - N/A   Mostly Cloudy
10:55 AM 66.2 °F 37.4 °F 35% 29.62 in 10.0 mi East 9.2 mph - N/A   Clear
11:15 AM 66.2 °F 37.4 °F 35% 29.60 in 10.0 mi East 9.2 mph - N/A   Clear
11:35 AM 68.0 °F 37.4 °F 33% 29.60 in 10.0 mi East 9.2 mph - N/A   Clear
11:55 AM - - N/A% 29.58 in 10.0 mi East 6.9 mph - N/A   Clear
12:15 PM - - N/A% 29.57 in 10.0 mi East 11.5 mph 17.3 mph N/A   Clear
12:35 PM - - N/A% 29.56 in 10.0 mi ENE 9.2 mph - N/A   Clear
12:55 PM - - N/A% 29.55 in 10.0 mi East 11.5 mph - N/A   Mostly Cloudy
1:35 PM - - N/A% 29.54 in 10.0 mi East 11.5 mph - N/A   Mostly Cloudy
1:55 PM - - N/A% 29.52 in 10.0 mi East 9.2 mph 17.3 mph N/A   Scattered Clouds
2:15 PM - - N/A% 29.51 in 10.0 mi ENE 6.9 mph - N/A   Partly Cloudy
2:35 PM - - N/A% 29.49 in 10.0 mi ENE 11.5 mph - N/A   Mostly Cloudy
3:15 PM - - N/A% 29.47 in 10.0 mi East 17.3 mph 24.2 mph N/A   Overcast
3:55 PM - - N/A% 29.48 in 10.0 mi SSW 23.0 mph 29.9 mph N/A   Overcast
4:15 PM - - N/A% 29.47 in 10.0 mi South 17.3 mph 24.2 mph N/A   Mostly Cloudy
4:35 PM - - N/A% 29.46 in 10.0 mi SSW 13.8 mph 18.4 mph N/A   Scattered Clouds
4:55 PM - - N/A% 29.45 in 10.0 mi SW 5.8 mph - N/A   Scattered Clouds
5:15 PM 66.2 °F 37.4 °F 35% 29.45 in 10.0 mi WSW 3.5 mph - N/A   Partly Cloudy
5:35 PM 64.4 °F 37.4 °F 37% 29.45 in 10.0 mi SSW 4.6 mph - N/A   Partly Cloudy
5:55 PM 64.4 °F 37.4 °F 37% 29.45 in 10.0 mi South 10.4 mph - N/A   Scattered Clouds
6:15 PM - - N/A% 29.44 in 10.0 mi South 12.7 mph - N/A   Scattered Clouds
6:35 PM - - N/A% 29.44 in 10.0 mi SSW 11.5 mph - N/A   Partly Cloudy
6:55 PM 62.6 °F 37.4 °F 39% 29.45 in 10.0 mi South 12.7 mph - N/A   Mostly Cloudy
7:15 PM 62.6 °F 35.6 °F 37% 29.46 in 10.0 mi South 11.5 mph 17.3 mph N/A   Overcast
7:35 PM 62.6 °F 35.6 °F 37% 29.46 in 10.0 mi South 13.8 mph - N/A   Overcast
7:55 PM 60.8 °F 37.4 °F 42% 29.47 in 10.0 mi SSW 10.4 mph 20.7 mph N/A   Overcast
8:15 PM - - N/A% 29.47 in 10.0 mi SSW 6.9 mph - N/A   Overcast
8:35 PM - - N/A% 29.49 in 10.0 mi SW 11.5 mph 26.5 mph N/A   Overcast
8:55 PM - - N/A% 29.48 in 10.0 mi WSW 11.5 mph 19.6 mph N/A   Mostly Cloudy
9:15 PM - - N/A% 29.47 in 10.0 mi WSW 18.4 mph 23.0 mph N/A   Mostly Cloudy
9:35 PM - - N/A% 29.47 in 10.0 mi SW 5.8 mph - N/A   Mostly Cloudy
9:55 PM - - N/A% 29.47 in 10.0 mi SW 6.9 mph - N/A   Scattered Clouds
10:15 PM 55.4 °F 37.4 °F 51% 29.49 in 10.0 mi SW 6.9 mph - N/A   Mostly Cloudy
10:35 PM 55.4 °F 37.4 °F 51% 29.48 in 10.0 mi South 6.9 mph - N/A   Partly Cloudy
10:55 PM 53.6 °F 37.4 °F 54% 29.49 in 10.0 mi SSE 6.9 mph - N/A   Clear
11:15 PM 51.8 °F 35.6 °F 54% 29.48 in 10.0 mi ESE 6.9 mph - N/A   Clear
11:35 PM 51.8 °F 35.6 °F 54% 29.49 in 10.0 mi South 9.2 mph - N/A   Clear
11:55 PM 51.8 °F 35.6 °F 54% 29.49 in 10.0 mi East 5.8 mph - N/A   Clear